Live Position
Loading 3D Globe...
About Lemur-2 Krish
Group: 3 satellites
Description loading...
Upcoming Passes
Passes for default location (London). Set your location on the main map for personalized predictions.
Altitude History
Loading altitude history...
No altitude history available
Two-Line Element Set
1 64561U 25135AK 26107.27105163 .00003861 00000-0 35261-3 0 9997
2 64561 97.7667 222.6241 0001542 101.7892 258.3502 14.95633666 44816
Epoch: Apr 17, 2026 •
Age: 13 hours
Current Status
Altitude 605.1 km
Velocity 7.56 km/s
Sub-Earth Point -61.49°S,
105.6°E
Launch Date Jun 23, 2025
Age 0.8 years
Type other
Technical Details
Classification Payload
Mass 10.00 kg
Dry Mass 10.00 kg
Total Mass 10.00 kg
Length 0.30 m
Diameter 0.20 m
Span 0.30 m
Shape Box
Manufacturer SPIREG
Bus Type Cubesat 6U
Phase Status In Orbit
Owner/State SPIRE/MCON/US
Most Searched
Loading...